Погода в Мехонском

Россия / Курганская область     56°09′43″N   64°34′13″E
темп.,
°C
ветер,
м/с
пор.,
м/с
влажн.,
%
обл.,
%
осадки,
мм/ч
давл.,
гПа
погр.,
м
28 ноября, вс
вс2823:00−2зюз7148585 0.0 1025515
02:00−4юз5119114 0.0 1027260
05:00−6юз4109392 0.0 1028192
08:00−7юз3994100 0.0 1028154
11:00−6юз498438 0.0 1029209
14:00−5ююз38855 0.0 1028189
17:00−7ююз51278100 0.0 1028222
20:00−6ююз51378100 0.0 1027281
29 ноября, пн
пн2923:00−5ююз61381100 0.0 1026305
02:00−5ююз5128281 0.0 1025291
05:00−7ююз51382100 0.0 1024232
08:00−7ююз4118465 0.0 1023189
11:00−6ююз510836 0.0 1024213
14:00−4ююз49825 0.0 1023194
17:00−7ююз38885 0.0 1022121
20:00−8юз368831 0.0 102388
30 ноября, вт
вт3023:00−4ююз3587100 0.0 1022117
02:00−3ююз3689100 0.0 1022134
05:00−2ююз3789100 0.0 1021151
08:00−2ююз3689100 0.0 1020138
11:00−2ю4983100 0.0 1020238
14:00−3ю4117694 0.0 1019293
17:00−5ю513799 0.0 1017267
20:00−5ю61588100 0.0 1015300
1 декабря, ср
ср123:00−3ю71877100 0.0 1012378
02:00−2ююз82068100 0.0 1010477
05:00−2ююз92076100 0.1 1008467
08:000ююз71795100 2.4 1007566
11:00+1ююз81694100 2.5 1008525
14:00+1ююз71591100 0.0 1008492
17:00+1ю61587100 0.0 1008477
20:00+1ю71884100 0.0 1006499
2 декабря, чт
чт223:00+1ю71773100 0.0 1004452
02:00+1ю8197283 0.0 1001583
05:00+1ю81778100 0.0 999520
08:00+1ююз7158489 0.0 998481
11:00+1ююз71489100 0.0 998506
14:00+2юз71392100 0.0 999655
17:00−1зюз714805 0.0 1001475
20:00−3зюз715805 0.0 1003552